• In Hungary
  • List of Countries
  • For 7 days
  • Water Temperature
  • Satellite Maps
  • Weather Map
  • News
  • Weather Widgets
  • user-avatar
    Login

    Hourly Weather Nasciszowa

    Today, 16 January, Tuesday

    Time Temperature Precipitation Wind Pressure Humidity
    00:00 -9°C° 0 mm 4 mps 729 mmHg 64%
    01:00 -7°C° 0 mm 2 mps 728 mmHg 69%
    02:00 -8°C° 0 mm 3 mps 727 mmHg 70%
    03:00 -9°C° 0 mm 4 mps 727 mmHg 70%
    04:00 -10°C° 0 mm 5 mps 726 mmHg 70%
    05:00 -10°C° 0 mm 5 mps 725 mmHg 70%
    06:00 -10°C° 0 mm 5 mps 724 mmHg 70%
    07:00 -8°C° 0 mm 5 mps 723 mmHg 70%
    08:00 -8°C° 0 mm 5 mps 723 mmHg 68%
    09:00 -7°C° 0 mm 5 mps 722 mmHg 66%
    10:00 -6°C° 0 mm 5 mps 722 mmHg 64%
    11:00 -5°C° 0 mm 5 mps 721 mmHg 64%
    12:00 -5°C° 0 mm 5 mps 720 mmHg 65%
    13:00 -4°C° 0 mm 5 mps 719 mmHg 66%
    14:00 -5°C° 0.2 mm 5 mps 718 mmHg 71%
    15:00 -5°C° 0.2 mm 5 mps 717 mmHg 77%
    16:00 -5°C° 0.2 mm 5 mps 716 mmHg 83%
    17:00 -5°C° 0.2 mm 5 mps 716 mmHg 83%
    18:00 -5°C° 0.2 mm 5 mps 715 mmHg 83%
    19:00 -5°C° 0.2 mm 5 mps 714 mmHg 84%
    20:00 -4°C° 0.3 mm 5 mps 714 mmHg 83%
    21:00 -2°C° 0.3 mm 5 mps 713 mmHg 82%
    22:00 -2°C° 0.3 mm 5 mps 713 mmHg 81%
    23:00 -2°C° 0 mm 5 mps 713 mmHg 81%

    Tomorrow, 17 January, Wednesday

    Time Temperature Precipitation Wind Pressure Humidity
    00:00 -2°C° 0 mm 4 mps 713 mmHg 82%
    01:00 -2°C° 0 mm 4 mps 713 mmHg 83%
    02:00 -2°C° 0 mm 4 mps 713 mmHg 83%
    03:00 -2°C° 0 mm 4 mps 713 mmHg 83%
    04:00 -2°C° 0 mm 4 mps 713 mmHg 82%
    05:00 -2°C° 0 mm 3 mps 712 mmHg 84%
    06:00 -2°C° 0 mm 3 mps 712 mmHg 86%
    07:00 -4°C° 0 mm 3 mps 712 mmHg 87%
    08:00 -2°C° 0.1 mm 2 mps 712 mmHg 86%
    09:00 -1°C° 0.1 mm 2 mps 712 mmHg 84%
    10:00 -1°C° 0.1 mm 2 mps 712 mmHg 83%
    11:00 +1°C° 0.1 mm 2 mps 712 mmHg 82%
    12:00 +1°C° 0.1 mm 2 mps 712 mmHg 80%
    13:00 +2°C° 0.1 mm 2 mps 712 mmHg 79%
    14:00 +1°C° 0.2 mm 2 mps 712 mmHg 81%
    15:00 -1°C° 0.2 mm 2 mps 713 mmHg 82%
    16:00 -1°C° 0.2 mm 3 mps 713 mmHg 84%
    17:00 -2°C° 0.1 mm 3 mps 713 mmHg 83%
    18:00 -2°C° 0.1 mm 3 mps 714 mmHg 82%
    19:00 -4°C° 0.1 mm 3 mps 714 mmHg 82%
    20:00 -4°C° 0 mm 4 mps 715 mmHg 81%
    21:00 -4°C° 0 mm 4 mps 716 mmHg 80%
    22:00 -4°C° 0 mm 4 mps 716 mmHg 80%
    23:00 -5°C° 0 mm 4 mps 716 mmHg 79%

    Day after tomorrow, 18 January, Thursday

    Time Temperature Precipitation Wind Pressure Humidity
    00:00 -5°C° 0 mm 4 mps 717 mmHg 79%
    01:00 -5°C° 0 mm 4 mps 717 mmHg 78%
    02:00 -5°C° 0.1 mm 4 mps 717 mmHg 79%
    03:00 -4°C° 0.1 mm 4 mps 717 mmHg 80%
    04:00 -4°C° 0.1 mm 4 mps 717 mmHg 81%
    05:00 -4°C° 0.2 mm 4 mps 718 mmHg 81%
    06:00 -5°C° 0.2 mm 5 mps 718 mmHg 82%
    07:00 -4°C° 0.2 mm 6 mps 719 mmHg 83%
    08:00 -4°C° 0.1 mm 5 mps 719 mmHg 80%
    09:00 -4°C° 0.1 mm 5 mps 720 mmHg 77%
    10:00 -4°C° 0.1 mm 5 mps 720 mmHg 74%
    11:00 -2°C° 0 mm 4 mps 720 mmHg 70%
    12:00 -2°C° 0 mm 4 mps 719 mmHg 66%
    13:00 0°C° 0 mm 3 mps 719 mmHg 62%
    14:00 -1°C° 0.1 mm 4 mps 718 mmHg 65%
    15:00 -2°C° 0.1 mm 4 mps 717 mmHg 68%
    16:00 -2°C° 0.1 mm 5 mps 716 mmHg 71%
    17:00 -1°C° 0.3 mm 5 mps 715 mmHg 72%
    18:00 -2°C° 0.3 mm 6 mps 715 mmHg 73%
    19:00 -1°C° 0.3 mm 6 mps 714 mmHg 73%
    20:00 -1°C° 0.1 mm 6 mps 713 mmHg 75%
    21:00 +1°C° 0.1 mm 6 mps 713 mmHg 77%
    22:00 +1°C° 0.1 mm 6 mps 712 mmHg 79%
    23:00 -1°C° 0.1 mm 6 mps 712 mmHg 78%

    19 January, Friday

    Time Temperature Precipitation Wind Pressure Humidity
    00:00 -1°C° 0.1 mm 6 mps 713 mmHg 76%
    01:00 -2°C° 0.1 mm 6 mps 713 mmHg 75%
    02:00 -2°C° 0 mm 6 mps 713 mmHg 74%
    03:00 -3°C° 0 mm 6 mps 713 mmHg 74%
    04:00 -3°C° 0 mm 6 mps 714 mmHg 74%
    05:00 -3°C° 0 mm 6 mps 714 mmHg 75%
    06:00 -4°C° 0 mm 6 mps 715 mmHg 76%
    07:00 -4°C° 0 mm 6 mps 715 mmHg 78%
    08:00 -3°C° 0 mm 6 mps 716 mmHg 75%
    09:00 -3°C° 0 mm 6 mps 717 mmHg 73%
    10:00 -1°C° 0 mm 5 mps 717 mmHg 71%
    11:00 -1°C° 0 mm 5 mps 718 mmHg 71%
    12:00 -1°C° 0 mm 4 mps 718 mmHg 71%
    13:00 +1°C° 0 mm 3 mps 718 mmHg 70%
    14:00 +1°C° 0.1 mm 2 mps 719 mmHg 75%
    15:00 -1°C° 0.1 mm 2 mps 719 mmHg 80%
    16:00 +1°C° 0.1 mm 1 mps 719 mmHg 85%
    17:00 +1°C° 0.2 mm 1 mps 720 mmHg 88%
    18:00 0°C° 0.2 mm 1 mps 720 mmHg 90%
    19:00 0°C° 0.2 mm 1 mps 720 mmHg 93%
    20:00 0°C° 0.1 mm 1 mps 721 mmHg 93%
    21:00 -1°C° 0.1 mm 0 mps 721 mmHg 93%
    22:00 -2°C° 0.1 mm 0 mps 721 mmHg 93%
    23:00 -2°C° 0 mm 0 mps 721 mmHg 93%

    20 January, Saturday

    Time Temperature Precipitation Wind Pressure Humidity
    00:00 -2°C° 0 mm 0 mps 722 mmHg 93%
    01:00 -2°C° 0 mm 0 mps 722 mmHg 93%
    02:00 -3°C° 0 mm 0 mps 721 mmHg 93%
    03:00 -3°C° 0 mm 0 mps 721 mmHg 93%
    04:00 -2°C° 0 mm 1 mps 721 mmHg 93%
    05:00 -2°C° 0 mm 1 mps 721 mmHg 93%
    06:00 -2°C° 0 mm 1 mps 721 mmHg 93%
    07:00 -2°C° 0 mm 1 mps 721 mmHg 92%
    08:00 -1°C° 0 mm 1 mps 721 mmHg 90%
    09:00 -1°C° 0 mm 1 mps 721 mmHg 87%
    10:00 -2°C° 0 mm 2 mps 722 mmHg 85%
    11:00 -2°C° 0 mm 2 mps 721 mmHg 84%
    12:00 -1°C° 0 mm 2 mps 721 mmHg 84%
    13:00 -1°C° 0 mm 2 mps 721 mmHg 83%
    14:00 -2°C° 0 mm 2 mps 721 mmHg 85%
    15:00 -2°C° 0 mm 2 mps 721 mmHg 87%
    16:00 -2°C° 0 mm 2 mps 721 mmHg 89%
    17:00 -2°C° 0.1 mm 2 mps 721 mmHg 90%
    18:00 -3°C° 0.1 mm 2 mps 721 mmHg 91%
    19:00 -3°C° 0.1 mm 2 mps 721 mmHg 92%
    20:00 -4°C° 0.2 mm 3 mps 721 mmHg 92%
    21:00 -4°C° 0.2 mm 3 mps 721 mmHg 93%
    22:00 -4°C° 0.2 mm 3 mps 721 mmHg 93%
    23:00 -4°C° 0.4 mm 3 mps 721 mmHg 93%

    21 January, Sunday

    Time Temperature Precipitation Wind Pressure Humidity
    00:00 -4°C° 0.4 mm 3 mps 720 mmHg 93%
    01:00 -5°C° 0.4 mm 3 mps 720 mmHg 93%
    02:00 -5°C° 0.5 mm 3 mps 720 mmHg 94%
    03:00 -5°C° 0.5 mm 4 mps 720 mmHg 94%
    04:00 -5°C° 0.5 mm 4 mps 720 mmHg 94%
    05:00 -5°C° 0.8 mm 4 mps 719 mmHg 94%
    06:00 -5°C° 0.8 mm 4 mps 719 mmHg 94%
    07:00 -5°C° 0.8 mm 4 mps 719 mmHg 94%
    08:00 -7°C° 0.9 mm 4 mps 719 mmHg 94%
    09:00 -7°C° 0.9 mm 5 mps 719 mmHg 94%
    10:00 -7°C° 0.9 mm 5 mps 719 mmHg 94%
    11:00 -7°C° 1 mm 5 mps 719 mmHg 94%
    12:00 -7°C° 1 mm 5 mps 719 mmHg 94%
    13:00 -7°C° 1 mm 5 mps 719 mmHg 94%
    14:00 -7°C° 0.6 mm 5 mps 719 mmHg 93%
    15:00 -7°C° 0.6 mm 5 mps 719 mmHg 93%
    16:00 -7°C° 0.6 mm 5 mps 719 mmHg 93%
    17:00 -7°C° 0.5 mm 5 mps 720 mmHg 93%
    18:00 -7°C° 0.5 mm 5 mps 720 mmHg 93%
    19:00 -7°C° 0.5 mm 5 mps 720 mmHg 93%
    20:00 -8°C° 0.5 mm 5 mps 721 mmHg 93%
    21:00 -8°C° 0.5 mm 5 mps 721 mmHg 93%
    22:00 -8°C° 0.5 mm 5 mps 721 mmHg 92%
    23:00 -8°C° 0.4 mm 5 mps 721 mmHg 92%
    Show more